| time (UTC) | temp C | wind direction | speed KPH | gust KPH | rain 1hr cm | rain 24hr cm | rain mn cm | humidity % | barometer mb |
| 20260505201257 | 27 | 90 | 11.3 | 16.1 | 0.00 | 0.00 | 0.00 | 75 | 1008.8 |
| 20260505200756 | 27 | 146 | 12.9 | 16.1 | 0.00 | 0.00 | 0.00 | 76 | 1008.7 |
| 20260505200252 | 27 | 169 | 11.3 | 14.5 | 0.00 | 0.00 | 0.00 | 76 | 1008.5 |
| 20260505195747 | 27 | 180 | 14.5 | 25.7 | 0.00 | 0.00 | 0.00 | 74 | 1008.9 |
| 20260505195245 | 27 | 232 | 14.5 | 17.7 | 0.00 | 0.00 | 0.00 | 76 | 1009.0 |
| 20260505194742 | 27 | 153 | 12.9 | 16.1 | 0.00 | 0.00 | 0.00 | 77 | 1008.9 |
| 20260505194239 | 27 | 130 | 8.0 | 12.9 | 0.00 | 0.00 | 0.00 | 77 | 1009.2 |
| 20260505193734 | 27 | 199 | 16.1 | 16.1 | 0.00 | 0.00 | 0.00 | 76 | 1009.4 |
| 20260505193232 | 26 | 139 | 12.9 | 16.1 | 0.00 | 0.00 | 0.00 | 77 | 1009.4 |
| 20260505192730 | 26 | 204 | 16.1 | 20.9 | 0.00 | 0.00 | 0.00 | 77 | 1009.1 |
| 20260505192228 | 26 | 156 | 12.9 | 17.7 | 0.00 | 0.00 | 0.00 | 78 | 1009.2 |
| 20260505191726 | 26 | 201 | 14.5 | 16.1 | 0.00 | 0.00 | 0.00 | 79 | 1009.2 |
| 20260505191224 | 26 | 190 | 17.7 | 20.9 | 0.00 | 0.00 | 0.00 | 78 | 1009.5 |
| 20260505190720 | 26 | 175 | 8.0 | 9.7 | 0.00 | 0.00 | 0.00 | 80 | 1009.4 |
| 20260505190220 | 25 | 162 | 8.0 | 11.3 | 0.00 | 0.00 | 0.00 | 79 | 1009.5 |
| 20260505185716 | 26 | 155 | 4.8 | 6.4 | 0.00 | 0.00 | 0.00 | 79 | 1009.4 |
| 20260505185213 | 25 | 199 | 8.0 | 11.3 | 0.00 | 0.00 | 0.00 | 80 | 1009.6 |
| 20260505184709 | 25 | 184 | 14.5 | 16.1 | 0.00 | 0.00 | 0.00 | 79 | 1009.7 |
| 20260505184207 | 25 | 199 | 4.8 | 9.7 | 0.00 | 0.00 | 0.00 | 81 | 1009.8 |
| 20260505183703 | 25 | 124 | 4.8 | 6.4 | 0.00 | 0.00 | 0.00 | 81 | 1009.7 |
| 20260505183201 | 25 | 199 | 12.9 | 17.7 | 0.00 | 0.00 | 0.00 | 81 | 1009.6 |
| 20260505182656 | 25 | 205 | 14.5 | 20.9 | 0.00 | 0.00 | 0.00 | 81 | 1009.9 |
| 20260505182154 | 25 | 211 | 12.9 | 16.1 | 0.00 | 0.00 | 0.00 | 81 | 1009.8 |
| 20260505181650 | 25 | 192 | 16.1 | 20.9 | 0.00 | 0.00 | 0.00 | 81 | 1009.9 |
| 20260505181148 | 25 | 148 | 8.0 | 9.7 | 0.00 | 0.00 | 0.00 | 82 | 1010.0 |
| 20260505180644 | 25 | 204 | 6.4 | 9.7 | 0.00 | 0.00 | 0.00 | 82 | 1010.1 |
| 20260505180142 | 25 | 191 | 9.7 | 12.9 | 0.00 | 0.00 | 0.00 | 82 | 1010.2 |
| 20260505175637 | 25 | 185 | 9.7 | 14.5 | 0.00 | 0.00 | 0.00 | 83 | 1010.2 |
| 20260505175134 | 25 | 184 | 6.4 | 6.4 | 0.00 | 0.00 | 0.00 | 83 | 1010.3 |
| 20260505174631 | 25 | 111 | 6.4 | 6.4 | 0.00 | 0.00 | 0.00 | 83 | 1010.4 |
| 20260505174127 | 24 | 192 | 8.0 | 14.5 | 0.00 | 0.00 | 0.00 | 83 | 1010.2 |
| 20260505173624 | 24 | 175 | 9.7 | 12.9 | 0.00 | 0.00 | 0.00 | 84 | 1010.4 |
| 20260505173120 | 23 | 194 | 12.9 | 20.9 | 0.00 | 0.00 | 0.00 | 84 | 1010.4 |
| 20260505172618 | 23 | 192 | 14.5 | 16.1 | 0.00 | 0.00 | 0.00 | 85 | 1010.4 |
| 20260505172114 | 23 | 164 | 12.9 | 17.7 | 0.00 | 0.00 | 0.00 | 85 | 1010.5 |
| 20260505171609 | 23 | 215 | 12.9 | 14.5 | 0.00 | 0.00 | 0.00 | 86 | 1010.4 |
| 20260505171107 | 23 | 196 | 17.7 | 20.9 | 0.00 | 0.00 | 0.00 | 86 | 1010.6 |
| 20260505170603 | 23 | 221 | 16.1 | 16.1 | 0.00 | 0.00 | 0.00 | 86 | 1010.6 |
| 20260505170100 | 23 | 182 | 14.5 | 20.9 | 0.00 | 0.00 | 0.00 | 86 | 1010.5 |
| 20260505165554 | 23 | 179 | 19.3 | 22.5 | 0.00 | 0.00 | 0.00 | 87 | 1010.4 |
| 20260505165050 | 23 | 185 | 17.7 | 22.5 | 0.00 | 0.00 | 0.00 | 87 | 1010.5 |
| 20260505164541 | 23 | 202 | 9.7 | 14.5 | 0.00 | 0.00 | 0.00 | 88 | 1010.4 |
| 20260505164039 | 22 | 159 | 6.4 | 9.7 | 0.00 | 0.00 | 0.00 | 89 | 1010.5 |
| 20260505163537 | 22 | 186 | 9.7 | 11.3 | 0.00 | 0.00 | 0.00 | 89 | 1010.6 |
| 20260505163033 | 22 | 199 | 14.5 | 16.1 | 0.00 | 0.00 | 0.00 | 90 | 1010.4 |
| 20260505162526 | 22 | 185 | 9.7 | 12.9 | 0.00 | 0.00 | 0.00 | 90 | 1010.4 |
| 20260505162024 | 22 | 199 | 6.4 | 9.7 | 0.00 | 0.00 | 0.00 | 90 | 1010.3 |
| 20260505161520 | 22 | 194 | 17.7 | 20.9 | 0.00 | 0.00 | 0.00 | 90 | 1010.2 |
| 20260505161017 | 22 | 220 | 9.7 | 12.9 | 0.00 | 0.00 | 0.00 | 90 | 1010.5 |
| 20260505160515 | 22 | 150 | 9.7 | 12.9 | 0.00 | 0.00 | 0.00 | 91 | 1010.5 |
| 20260505152952 | 22 | 185 | 9.7 | 14.5 | 0.00 | 0.00 | 0.00 | 91 | 1010.6 |
| 20260505152449 | 22 | 195 | 9.7 | 12.9 | 0.00 | 0.00 | 0.00 | 91 | 1010.6 |
| 20260505151944 | 22 | 169 | 6.4 | 11.3 | 0.00 | 0.00 | 0.00 | 91 | 1010.5 |
| 20260505151440 | 22 | 153 | 9.7 | 12.9 | 0.00 | 0.00 | 0.00 | 91 | 1010.6 |
| 20260505150937 | 22 | 204 | 9.7 | 12.9 | 0.00 | 0.00 | 0.00 | 91 | 1010.5 |
| 20260505150434 | 22 | 150 | 9.7 | 11.3 | 0.00 | 0.00 | 0.00 | 92 | 1010.4 |
| 20260505140404 | 21 | 201 | 14.5 | 16.1 | 0.00 | 0.00 | 0.00 | 92 | 1010.0 |
| 20260505124818 | 21 | 155 | 12.9 | 14.5 | 0.00 | 0.00 | 0.00 | 92 | 1009.3 |
| 20260505124315 | 21 | 203 | 19.3 | 24.1 | 0.00 | 0.00 | 0.00 | 92 | 1009.2 |
| 20260505123810 | 21 | 218 | 12.9 | 16.1 | 0.00 | 0.00 | 0.00 | 92 | 1009.1 |
| 20260505123308 | 21 | 131 | 14.5 | 22.5 | 0.00 | 0.00 | 0.00 | 92 | 1009.0 |
| 20260505122803 | 21 | 202 | 17.7 | 22.5 | 0.00 | 0.00 | 0.00 | 92 | 1009.1 |
| 20260505122301 | 21 | 154 | 9.7 | 11.3 | 0.00 | 0.00 | 0.00 | 92 | 1008.9 |
| 20260505121757 | 21 | 176 | 17.7 | 20.9 | 0.00 | 0.00 | 0.00 | 92 | 1009.0 |
| 20260505121254 | 21 | 168 | 9.7 | 12.9 | 0.00 | 0.00 | 0.00 | 92 | 1008.9 |
| 20260505120750 | 21 | 190 | 22.5 | 25.7 | 0.00 | 0.00 | 0.00 | 92 | 1008.8 |
| 20260505120247 | 21 | 179 | 14.5 | 16.1 | 0.00 | 0.00 | 0.00 | 92 | 1008.4 |
| 20260505115745 | 21 | 183 | 20.9 | 25.7 | 0.00 | 0.00 | 0.00 | 91 | 1008.3 |
| 20260505115243 | 21 | 199 | 11.3 | 14.5 | 0.00 | 0.00 | 0.00 | 92 | 1008.4 |
| 20260505114740 | 21 | 188 | 12.9 | 17.7 | 0.00 | 0.00 | 0.00 | 92 | 1008.4 |
| 20260505114236 | 21 | 203 | 16.1 | 24.1 | 0.00 | 0.00 | 0.00 | 91 | 1008.7 |
| 20260505113733 | 21 | 189 | 12.9 | 14.5 | 0.00 | 0.00 | 0.00 | 91 | 1008.4 |
| 20260505113230 | 21 | 154 | 9.7 | 12.9 | 0.00 | 0.00 | 0.00 | 91 | 1008.9 |
| 20260505112726 | 21 | 217 | 16.1 | 24.1 | 0.00 | 0.00 | 0.00 | 91 | 1008.7 |
| 20260505112224 | 21 | 208 | 11.3 | 14.5 | 0.00 | 0.00 | 0.00 | 91 | 1008.4 |
| 20260505111723 | 21 | 199 | 14.5 | 17.7 | 0.00 | 0.00 | 0.00 | 91 | 1008.4 |
| 20260505111220 | 21 | 206 | 12.9 | 17.7 | 0.00 | 0.00 | 0.00 | 91 | 1008.5 |
| 20260505110715 | 21 | 165 | 14.5 | 20.9 | 0.00 | 0.00 | 0.00 | 91 | 1008.4 |
| 20260505110213 | 21 | 193 | 14.5 | 17.7 | 0.00 | 0.00 | 0.00 | 91 | 1008.7 |
| 20260505102149 | 21 | 166 | 9.7 | 11.3 | 0.00 | 0.00 | 0.00 | 90 | 1008.7 |
| 20260505101647 | 21 | 172 | 17.7 | 24.1 | 0.00 | 0.00 | 0.00 | 90 | 1009.2 |
| 20260505101143 | 21 | 182 | 9.7 | 17.7 | 0.00 | 0.00 | 0.00 | 90 | 1008.9 |
| 20260505100639 | 21 | 117 | 11.3 | 14.5 | 0.00 | 0.00 | 0.00 | 90 | 1009.2 |
| 20260505100137 | 21 | 158 | 11.3 | 12.9 | 0.00 | 0.00 | 0.00 | 89 | 1009.2 |
| 20260505095632 | 21 | 220 | 17.7 | 20.9 | 0.00 | 0.00 | 0.00 | 89 | 1009.1 |
| 20260505095130 | 21 | 185 | 8.0 | 9.7 | 0.00 | 0.00 | 0.00 | 89 | 1008.9 |
| 20260505094626 | 21 | 225 | 12.9 | 16.1 | 0.00 | 0.00 | 0.00 | 89 | 1008.9 |
| 20260505094122 | 21 | 213 | 9.7 | 12.9 | 0.00 | 0.00 | 0.00 | 89 | 1008.9 |
| 20260505093619 | 21 | 191 | 11.3 | 17.7 | 0.00 | 0.00 | 0.00 | 89 | 1009.1 |
| 20260505093116 | 21 | 201 | 8.0 | 14.5 | 0.00 | 0.00 | 0.00 | 89 | 1009.2 |
| 20260505092613 | 21 | 183 | 9.7 | 11.3 | 0.00 | 0.00 | 0.00 | 89 | 1009.2 |
| 20260505092112 | 21 | 160 | 9.7 | 9.7 | 0.00 | 0.00 | 0.00 | 89 | 1008.9 |
| 20260505091608 | 21 | 178 | 14.5 | 17.7 | 0.00 | 0.00 | 0.00 | 89 | 1009.2 |
| 20260505091106 | 21 | 184 | 6.4 | 9.7 | 0.00 | 0.00 | 0.00 | 89 | 1009.3 |
| 20260505090604 | 21 | 182 | 12.9 | 14.5 | 0.00 | 0.00 | 0.00 | 89 | 1009.4 |
| 20260505085559 | 21 | 180 | 12.9 | 14.5 | 0.00 | 0.00 | 0.00 | 90 | 1009.3 |
| 20260505085057 | 21 | 166 | 14.5 | 22.5 | 0.00 | 0.00 | 0.00 | 90 | 1009.1 |
| 20260505084555 | 21 | 187 | 12.9 | 16.1 | 0.00 | 0.00 | 0.00 | 90 | 1009.2 |
| 20260505084053 | 21 | 155 | 14.5 | 20.9 | 0.00 | 0.00 | 0.00 | 90 | 1009.4 |
| 20260505083550 | 21 | 201 | 9.7 | 11.3 | 0.00 | 0.00 | 0.00 | 90 | 1009.1 |
| 20260505083046 | 21 | 188 | 8.0 | 11.3 | 0.00 | 0.00 | 0.00 | 90 | 1009.3 |
| 20260505082542 | 21 | 192 | 20.9 | 24.1 | 0.00 | 0.00 | 0.00 | 90 | 1009.5 |
| 20260505082039 | 21 | 193 | 17.7 | 25.7 | 0.00 | 0.00 | 0.00 | 90 | 1009.5 |
| 20260505081536 | 21 | 163 | 20.9 | 25.7 | 0.00 | 0.00 | 0.00 | 90 | 1009.5 |
| 20260505081033 | 21 | 184 | 11.3 | 12.9 | 0.00 | 0.00 | 0.00 | 89 | 1009.5 |
| 20260505080529 | 21 | 191 | 11.3 | 12.9 | 0.00 | 0.00 | 0.00 | 89 | 1009.5 |
| 20260505080026 | 21 | 170 | 9.7 | 14.5 | 0.00 | 0.00 | 0.00 | 89 | 1009.6 |
| 20260505075522 | 21 | 199 | 14.5 | 17.7 | 0.00 | 0.00 | 0.00 | 89 | 1009.5 |
| 20260505075019 | 21 | 197 | 9.7 | 11.3 | 0.00 | 0.00 | 0.00 | 89 | 1009.7 |
| 20260505074516 | 21 | 178 | 8.0 | 11.3 | 0.00 | 0.00 | 0.00 | 89 | 1010.0 |
| 20260505074013 | 21 | 213 | 6.4 | 11.3 | 0.00 | 0.00 | 0.00 | 89 | 1009.9 |
| 20260505073510 | 21 | 174 | 11.3 | 16.1 | 0.00 | 0.00 | 0.00 | 89 | 1009.9 |
| 20260505073009 | 21 | 159 | 8.0 | 11.3 | 0.00 | 0.00 | 0.00 | 88 | 1009.9 |
| 20260505072504 | 21 | 172 | 14.5 | 14.5 | 0.00 | 0.00 | 0.00 | 88 | 1010.1 |
| 20260505072000 | 21 | 172 | 14.5 | 20.9 | 0.00 | 0.00 | 0.00 | 88 | 1010.2 |
| 20260505071456 | 21 | 207 | 11.3 | 12.9 | 0.00 | 0.00 | 0.00 | 88 | 1010.3 |
| 20260505070954 | 21 | 148 | 6.4 | 11.3 | 0.00 | 0.00 | 0.00 | 88 | 1010.3 |
| 20260505070451 | 21 | 163 | 8.0 | 11.3 | 0.00 | 0.00 | 0.00 | 88 | 1010.4 |
| 20260505065946 | 21 | 161 | 20.9 | 24.1 | 0.00 | 0.00 | 0.00 | 88 | 1010.3 |
| 20260505065443 | 21 | 161 | 11.3 | 14.5 | 0.00 | 0.00 | 0.00 | 88 | 1010.3 |
| 20260505064940 | 21 | 176 | 17.7 | 20.9 | 0.00 | 0.00 | 0.00 | 88 | 1010.3 |
| 20260505064437 | 21 | 202 | 6.4 | 9.7 | 0.00 | 0.00 | 0.00 | 88 | 1010.5 |
| 20260505063935 | 21 | 179 | 19.3 | 22.5 | 0.00 | 0.00 | 0.00 | 88 | 1010.5 |
| 20260505063431 | 21 | 222 | 20.9 | 27.4 | 0.00 | 0.00 | 0.00 | 88 | 1010.6 |
| 20260505062928 | 21 | 167 | 17.7 | 25.7 | 0.00 | 0.00 | 0.00 | 88 | 1010.7 |
| 20260505062425 | 21 | 158 | 9.7 | 12.9 | 0.00 | 0.00 | 0.00 | 88 | 1010.9 |
| 20260505061921 | 21 | 195 | 16.1 | 22.5 | 0.00 | 0.00 | 0.00 | 88 | 1010.9 |
| 20260505061420 | 21 | 201 | 12.9 | 17.7 | 0.00 | 0.00 | 0.00 | 88 | 1010.7 |
| 20260505060917 | 21 | 176 | 16.1 | 22.5 | 0.00 | 0.00 | 0.00 | 87 | 1010.9 |
| 20260505060414 | 21 | 151 | 8.0 | 9.7 | 0.00 | 0.00 | 0.00 | 87 | 1010.7 |
| 20260505055910 | 21 | 150 | 19.3 | 25.7 | 0.00 | 0.00 | 0.00 | 87 | 1010.8 |
| 20260505055407 | 21 | 184 | 16.1 | 20.9 | 0.00 | 0.00 | 0.00 | 87 | 1010.8 |
| 20260505054903 | 21 | 174 | 16.1 | 17.7 | 0.00 | 0.00 | 0.00 | 87 | 1010.9 |
| 20260505054401 | 21 | 164 | 19.3 | 24.1 | 0.00 | 0.00 | 0.00 | 87 | 1010.9 |
| 20260505053859 | 21 | 157 | 11.3 | 12.9 | 0.00 | 0.00 | 0.00 | 87 | 1011.0 |
| 20260505053356 | 21 | 134 | 11.3 | 14.5 | 0.00 | 0.00 | 0.00 | 87 | 1010.7 |
| 20260505052852 | 21 | 191 | 17.7 | 25.7 | 0.00 | 0.00 | 0.00 | 87 | 1010.7 |
| 20260505052349 | 21 | 160 | 6.4 | 11.3 | 0.00 | 0.00 | 0.00 | 87 | 1010.9 |
| 20260505051846 | 21 | 135 | 9.7 | 12.9 | 0.00 | 0.00 | 0.00 | 87 | 1010.9 |
| 20260505051343 | 21 | 169 | 14.5 | 20.9 | 0.00 | 0.00 | 0.00 | 87 | 1010.9 |
| 20260505050842 | 21 | 185 | 16.1 | 20.9 | 0.00 | 0.00 | 0.00 | 87 | 1010.7 |
| 20260505050340 | 21 | 158 | 12.9 | 20.9 | 0.00 | 0.00 | 0.00 | 86 | 1010.7 |
| 20260505041307 | 22 | 168 | 9.7 | 12.9 | 0.00 | 0.00 | 0.00 | 83 | 1010.5 |
| 20260505040804 | 22 | 193 | 22.5 | 24.1 | 0.00 | 0.00 | 0.00 | 83 | 1010.8 |
| 20260505040302 | 22 | 126 | 11.3 | 16.1 | 0.00 | 0.00 | 0.00 | 83 | 1010.5 |
| 20260505035758 | 22 | 201 | 22.5 | 25.7 | 0.00 | 0.00 | 0.00 | 83 | 1010.9 |
| 20260505035254 | 22 | 112 | 19.3 | 27.4 | 0.00 | 0.00 | 0.00 | 82 | 1010.8 |
| 20260505034751 | 22 | 157 | 16.1 | 25.7 | 0.00 | 0.00 | 0.00 | 83 | 1010.8 |
| 20260505034248 | 23 | 183 | 9.7 | 14.5 | 0.00 | 0.00 | 0.00 | 82 | 1010.9 |
| 20260505033744 | 23 | 143 | 16.1 | 22.5 | 0.00 | 0.00 | 0.00 | 82 | 1010.7 |
| 20260505033242 | 23 | 133 | 8.0 | 11.3 | 0.00 | 0.00 | 0.00 | 82 | 1010.8 |
| 20260505032740 | 23 | 173 | 16.1 | 22.5 | 0.00 | 0.00 | 0.00 | 81 | 1010.4 |
| 20260505032236 | 23 | 154 | 9.7 | 12.9 | 0.00 | 0.00 | 0.00 | 81 | 1010.7 |
| 20260505031733 | 23 | 144 | 14.5 | 17.7 | 0.00 | 0.00 | 0.00 | 81 | 1010.6 |
| 20260505031229 | 23 | 132 | 17.7 | 24.1 | 0.00 | 0.00 | 0.00 | 80 | 1010.7 |
| 20260505030727 | 23 | 147 | 3.2 | 6.4 | 0.00 | 0.00 | 0.00 | 80 | 1010.7 |
| 20260505030223 | 23 | 186 | 4.8 | 4.8 | 0.00 | 0.00 | 0.00 | 80 | 1010.9 |
| 20260505025718 | 23 | 150 | 11.3 | 14.5 | 0.00 | 0.00 | 0.00 | 79 | 1010.7 |
| 20260505025217 | 23 | 180 | 9.7 | 12.9 | 0.00 | 0.00 | 0.00 | 79 | 1010.5 |
| 20260505024715 | 23 | 154 | 8.0 | 12.9 | 0.00 | 0.00 | 0.00 | 79 | 1010.7 |
| 20260505024212 | 23 | 153 | 16.1 | 17.7 | 0.00 | 0.00 | 0.00 | 78 | 1010.5 |
| 20260505023709 | 23 | 165 | 14.5 | 17.7 | 0.00 | 0.00 | 0.00 | 78 | 1010.9 |
| 20260505023206 | 23 | 170 | 14.5 | 16.1 | 0.00 | 0.00 | 0.00 | 77 | 1010.5 |
| 20260505022704 | 23 | 136 | 6.4 | 9.7 | 0.00 | 0.00 | 0.00 | 77 | 1010.5 |
| 20260505022200 | 24 | 185 | 9.7 | 12.9 | 0.00 | 0.00 | 0.00 | 76 | 1010.5 |
| 20260505021657 | 24 | 171 | 19.3 | 24.1 | 0.00 | 0.00 | 0.00 | 76 | 1010.5 |
| 20260505021154 | 24 | 170 | 12.9 | 17.7 | 0.00 | 0.00 | 0.00 | 75 | 1010.5 |
| 20260505020650 | 24 | 178 | 14.5 | 20.9 | 0.00 | 0.00 | 0.00 | 75 | 1010.5 |
| 20260505020145 | 24 | 132 | 9.7 | 14.5 | 0.00 | 0.00 | 0.00 | 74 | 1010.5 |
| 20260505015643 | 24 | 112 | 9.7 | 14.5 | 0.00 | 0.00 | 0.00 | 73 | 1010.4 |
| 20260505015139 | 24 | 173 | 14.5 | 17.7 | 0.00 | 0.00 | 0.00 | 73 | 1010.4 |
| 20260505014636 | 24 | 197 | 6.4 | 9.7 | 0.00 | 0.00 | 0.00 | 72 | 1010.5 |
| 20260505014133 | 25 | 175 | 4.8 | 6.4 | 0.00 | 0.00 | 0.00 | 72 | 1010.4 |
| 20260505013631 | 25 | 174 | 8.0 | 9.7 | 0.00 | 0.00 | 0.00 | 71 | 1010.5 |
| 20260505013128 | 25 | 144 | 6.4 | 9.7 | 0.00 | 0.00 | 0.00 | 70 | 1010.4 |
| 20260505012626 | 25 | 177 | 11.3 | 12.9 | 0.00 | 0.00 | 0.00 | 70 | 1010.4 |
| 20260505012123 | 25 | 131 | 4.8 | 6.4 | 0.00 | 0.00 | 0.00 | 69 | 1010.3 |
| 20260505011618 | 25 | 99 | 14.5 | 17.7 | 0.00 | 0.00 | 0.00 | 68 | 1010.3 |
| 20260505011116 | 25 | 155 | 14.5 | 20.9 | 0.00 | 0.00 | 0.00 | 68 | 1010.2 |
| 20260505010611 | 25 | 218 | 9.7 | 12.9 | 0.00 | 0.00 | 0.00 | 67 | 1010.1 |
| 20260505010108 | 25 | 180 | 9.7 | 12.9 | 0.00 | 0.00 | 0.00 | 67 | 1010.3 |
| 20260505005604 | 25 | 200 | 14.5 | 16.1 | 0.00 | 0.00 | 0.00 | 67 | 1010.3 |
| 20260505005101 | 25 | 151 | 9.7 | 14.5 | 0.00 | 0.00 | 0.00 | 67 | 1010.2 |
| 20260505004558 | 25 | 139 | 6.4 | 9.7 | 0.00 | 0.00 | 0.00 | 66 | 1010.1 |
| 20260505004055 | 26 | 167 | 12.9 | 22.5 | 0.00 | 0.00 | 0.00 | 65 | 1010.0 |
| 20260505003552 | 26 | 160 | 14.5 | 24.1 | 0.00 | 0.00 | 0.00 | 64 | 1010.1 |
| 20260505003050 | 26 | 170 | 14.5 | 20.9 | 0.00 | 0.00 | 0.00 | 64 | 1010.2 |
| 20260505002549 | 26 | 133 | 11.3 | 14.5 | 0.00 | 0.00 | 0.00 | 64 | 1010.0 |
| 20260505002044 | 26 | 158 | 14.5 | 25.7 | 0.00 | 0.00 | 0.00 | 64 | 1009.9 |
| 20260505001540 | 26 | 203 | 12.9 | 14.5 | 0.00 | 0.00 | 0.00 | 63 | 1010.0 |
| 20260505001038 | 26 | 166 | 17.7 | 25.7 | 0.00 | 0.00 | 0.00 | 64 | 1009.9 |
| 20260505000535 | 26 | 199 | 22.5 | 25.7 | 0.00 | 0.00 | 0.00 | 62 | 1009.8 |
| 20260505000033 | 26 | 143 | 17.7 | 24.1 | 0.00 | 0.00 | 0.00 | 62 | 1010.2 |
| 20260504235529 | 26 | 160 | 20.9 | 25.7 | 0.00 | 0.00 | 0.00 | 62 | 1010.3 |
| 20260504235026 | 26 | 193 | 16.1 | 17.7 | 0.00 | 0.00 | 0.00 | 62 | 1010.3 |
| 20260504234523 | 26 | 148 | 11.3 | 14.5 | 0.00 | 0.00 | 0.00 | 62 | 1010.3 |
| 20260504234020 | 26 | 89 | 12.9 | 16.1 | 0.00 | 0.00 | 0.00 | 63 | 1010.3 |
| 20260504233515 | 26 | 152 | 8.0 | 12.9 | 0.00 | 0.00 | 0.00 | 62 | 1010.3 |
| 20260504233012 | 26 | 170 | 12.9 | 16.1 | 0.00 | 0.00 | 0.00 | 62 | 1010.4 |
| 20260504232509 | 26 | 164 | 14.5 | 17.7 | 0.00 | 0.00 | 0.00 | 61 | 1010.4 |
| 20260504232007 | 27 | 190 | 19.3 | 22.5 | 0.00 | 0.00 | 0.00 | 62 | 1010.4 |
| 20260504231503 | 26 | 199 | 12.9 | 16.1 | 0.00 | 0.00 | 0.00 | 61 | 1010.4 |
| 20260504230959 | 27 | 171 | 19.3 | 22.5 | 0.00 | 0.00 | 0.00 | 63 | 1010.6 |
| 20260504230455 | 27 | 178 | 12.9 | 17.7 | 0.00 | 0.00 | 0.00 | 63 | 1010.6 |
| 20260504225955 | 26 | 171 | 22.5 | 29.0 | 0.00 | 0.00 | 0.00 | 62 | 1010.6 |
| 20260504225451 | 27 | 130 | 8.0 | 14.5 | 0.00 | 0.00 | 0.00 | 63 | 1010.8 |
| 20260504224948 | 27 | 131 | 17.7 | 24.1 | 0.00 | 0.00 | 0.00 | 63 | 1010.9 |
| 20260504224445 | 27 | 174 | 17.7 | 22.5 | 0.00 | 0.00 | 0.00 | 62 | 1011.0 |
| 20260504223942 | 27 | 224 | 9.7 | 14.5 | 0.00 | 0.00 | 0.00 | 62 | 1010.9 |
| 20260504223438 | 27 | 182 | 16.1 | 20.9 | 0.00 | 0.00 | 0.00 | 61 | 1010.9 |
| 20260504222933 | 27 | 217 | 14.5 | 17.7 | 0.00 | 0.00 | 0.00 | 61 | 1010.6 |
| 20260504222432 | 27 | 187 | 19.3 | 27.4 | 0.00 | 0.00 | 0.00 | 62 | 1011.1 |
| 20260504221929 | 27 | 165 | 25.7 | 33.8 | 0.00 | 0.00 | 0.00 | 61 | 1011.0 |
| 20260504221426 | 27 | 127 | 12.9 | 22.5 | 0.00 | 0.00 | 0.00 | 62 | 1011.1 |
| 20260504220923 | 27 | 194 | 12.9 | 16.1 | 0.00 | 0.00 | 0.00 | 62 | 1011.1 |
| 20260504220419 | 27 | 128 | 6.4 | 9.7 | 0.00 | 0.00 | 0.00 | 63 | 1010.9 |
| 20260504215916 | 27 | 196 | 12.9 | 14.5 | 0.00 | 0.00 | 0.00 | 63 | 1011.0 |
| 20260504215413 | 27 | 187 | 17.7 | 24.1 | 0.00 | 0.00 | 0.00 | 61 | 1011.1 |
| 20260504214909 | 27 | 196 | 14.5 | 20.9 | 0.00 | 0.00 | 0.00 | 62 | 1011.1 |
| 20260504214406 | 26 | 164 | 17.7 | 24.1 | 0.00 | 0.00 | 0.00 | 62 | 1011.1 |
| 20260504213903 | 26 | 149 | 12.9 | 20.9 | 0.00 | 0.00 | 0.00 | 63 | 1011.1 |
| 20260504213359 | 26 | 215 | 6.4 | 9.7 | 0.00 | 0.00 | 0.00 | 63 | 1011.3 |
| 20260504212856 | 26 | 228 | 12.9 | 14.5 | 0.00 | 0.00 | 0.00 | 63 | 1011.4 |
| 20260504212352 | 26 | 145 | 16.1 | 22.5 | 0.00 | 0.00 | 0.00 | 62 | 1011.6 |
| 20260504211850 | 26 | 191 | 16.1 | 20.9 | 0.00 | 0.00 | 0.00 | 62 | 1011.6 |
| 20260504211346 | 26 | 180 | 9.7 | 12.9 | 0.00 | 0.00 | 0.00 | 62 | 1011.8 |
| 20260504210844 | 26 | 197 | 16.1 | 20.9 | 0.00 | 0.00 | 0.00 | 62 | 1011.9 |
| 20260504210340 | 26 | 178 | 6.4 | 14.5 | 0.00 | 0.00 | 0.00 | 63 | 1011.9 |
| 20260504205837 | 27 | 132 | 8.0 | 12.9 | 0.00 | 0.00 | 0.00 | 62 | 1012.3 |
| 20260504205335 | 26 | 187 | 17.7 | 22.5 | 0.00 | 0.00 | 0.00 | 62 | 1012.2 |
| 20260504204833 | 26 | 169 | 19.3 | 24.1 | 0.00 | 0.00 | 0.00 | 61 | 1012.3 |
| 20260504204331 | 26 | 173 | 16.1 | 24.1 | 0.00 | 0.00 | 0.00 | 62 | 1012.3 |
| 20260504203830 | 26 | 195 | 16.1 | 16.1 | 0.00 | 0.00 | 0.00 | 61 | 1012.3 |
| 20260504203327 | 26 | 205 | 8.0 | 11.3 | 0.00 | 0.00 | 0.00 | 61 | 1012.2 |
| 20260504202822 | 26 | 190 | 14.5 | 16.1 | 0.00 | 0.00 | 0.00 | 61 | 1012.6 |
| 20260504202320 | 26 | 131 | 9.7 | 11.3 | 0.00 | 0.00 | 0.00 | 62 | 1012.7 |
| 20260504201817 | 26 | 174 | 11.3 | 11.3 | 0.00 | 0.00 | 0.00 | 62 | 1012.7 |